Theta_e
312 311 311 309 307 305 303 299 294 306 306 295 293 292 291 295 296 298 297 297 294 289 289 288 290 290 293 298 296 290 293 290 284 287 293 296 293 291 291 285 286 290 288 290
312 311 310 308 307 305 301 296 296 304 305 290 290 292 291 294 294 294 295 295 296 295 290 286 290 293 298 298 295 292 293 289 283 285 289 294 291 292 293 292 290 288 287 291
312 312 310 308 307 305 301 297 292 297 297 296 291 289 289 291 295 294 296 295 298 295 290 293 288 290 295 298 297 299 298 291 287 282 286 292 288 291 293 291 284 289 292 296
313 312 310 308 306 305 300 297 292 293 291 292 292 290 290 289 288 294 295 295 295 292 286 289 288 289 292 294 299 298 296 289 291 292 292 292 291 291 290 289 288 286 294 293
312 312 310 308 306 304 300 294 294 296 293 294 291 289 289 288 290 290 291 292 293 293 289 290 288 291 289 290 297 296 297 290 292 289 292 291 289 291 291 290 290 291 293 293
311 311 310 307 307 303 296 297 299 295 292 292 290 290 290 290 292 293 294 293 292 292 295 296 297 297 297 296 294 294 292 291 289 287 291 290 285 289 291 292 295 294 291 299
310 310 311 307 307 304 300 298 297 293 289 290 291 291 292 291 291 290 293 295 294 298 301 302 301 301 298 297 295 297 292 291 291 287 288 280 292 299 297 296 297 300 300 308
311 310 311 308 306 305 302 300 296 295 289 291 291 292 292 293 293 291 293 296 299 300 299 296 293 292 292 295 299 298 299 293 289 286 286 290 295 300 299 300 301 310 307 309
311 310 311 309 306 305 303 301 301 298 290 290 294 291 293 289 289 292 293 298 301 302 297 293 286 285 288 288 294 300 299 297 291 288 287 285 296 302 305 306 298 311 310 308
308 309 311 310 308 306 304 301 301 298 290 294 295 293 291 293 292 289 292 294 297 302 293 290 287 287 291 287 289 292 293 294 291 289 289 293 301 303 306 295 296 305 310 311
307 307 310 311 309 306 304 301 301 297 292 294 295 296 294 293 293 289 293 295 298 298 291 289 289 287 289 289 292 291 291 289 289 291 289 287 303 304 299 304 307 310 310 310
306 307 309 310 310 307 305 298 301 300 293 294 298 297 298 296 296 293 294 296 295 298 293 293 293 289 289 288 287 294 290 291 289 293 293 300 304 301 305 309 307 311 310 308
305 306 307 309 310 308 305 300 299 296 292 292 292 296 301 301 299 301 293 298 300 300 299 296 294 289 290 287 288 289 293 293 293 295 298 296 302 303 303 309 310 311 310 309
305 305 306 308 310 308 306 301 299 296 293 286 294 302 301 305 304 301 301 302 302 301 298 297 295 290 293 289 290 289 291 292 290 295 296 299 302 301 301 309 310 309 309 308
305 306 307 309 309 307 306 304 301 301 292 290 293 299 301 303 303 302 301 300 299 298 297 296 294 297 293 293 291 289 291 290 288 289 295 295 296 300 304 306 308 308 307 306
306 307 308 308 306 304 300 294 299 300 297 290 287 299 300 302 305 301 300 300 300 300 298 297 298 298 294 289 287 290 292 296 296 293 297 297 299 300 304 305 306 307 305 305
307 308 308 306 305 301 297 295 299 301 300 293 290 291 299 301 303 305 302 302 302 300 298 297 296 296 295 290 287 291 295 296 297 298 298 297 296 295 302 305 306 306 304 304
308 308 306 305 303 302 296 301 303 302 296 294 289 291 295 301 298 301 304 302 301 299 298 295 295 295 292 287 291 293 295 296 296 296 296 295 297 298 303 304 304 303 302 301
306 304 302 301 297 293 296 304 303 302 294 291 293 290 290 301 298 296 302 302 298 299 296 295 293 291 287 290 291 293 294 293 294 296 295 295 293 294 296 301 301 301 300 302
303 299 295 294 298 302 304 299 292 291 292 293 290 296 291 296 296 295 296 299 298 295 295 295 292 291 294 295 295 295 294 295 296 294 291 292 291 291 292 293 296 297 298 299
297 294 294 300 301 301 298 295 291 291 289 294 295 294 293 299 293 294 296 294 296 292 293 292 291 290 294 295 294 295 295 295 295 294 294 293 292 292 291 291 292 293 295 294
299 297 298 298 297 295 292 291 293 291 290 296 294 295 295 297 298 296 297 294 295 289 295 292 290 292 295 295 294 295 295 295 294 294 293 292 292 292 291 291 290 291 292 293
298 296 293 293 291 286 286 284 287 291 296 297 297 297 300 299 299 297 295 291 291 296 292 291 293 293 296 296 295 295 295 295 294 293 293 293 292 292 292 290 291 291 290 291
292 290 283 286 285 287 290 291 292 297 297 299 299 300 298 298 295 296 291 294 296 290 288 290 293 294 296 297 296 295 294 295 294 293 293 292 291 290 290 290 290 289 288 289
290 290 283 287 291 292 294 294 295 298 301 300 298 298 298 296 293 294 292 290 288 291 291 296 295 296 297 295 295 295 295 295 295 295 294 293 293 291 289 289 288 288 287 287
292 290 286 291 290 292 293 294 295 299 302 302 301 295 293 292 293 290 290 289 288 293 297 297 297 296 296 295 295 296 296 296 296 295 295 293 291 290 288 288 288 287 287 287
289 288 292 291 291 290 293 294 295 299 299 295 296 290 289 295 290 290 293 292 296 298 298 297 298 298 297 297 296 297 297 297 297 295 294 293 292 290 288 286 287 287 287 286
Wind_Speed
22 23 23 25 25 28 7 4 1 6 6 4 2 2 6 5 7 2 5 3 5 4 4 6 7 5 5 6 11 10 11 4 8 12 2 8 18 15 16 9 14 6 6 10
19 18 20 23 24 22 5 4 4 4 4 4 4 6 6 4 5 8 4 6 5 7 4 6 7 9 8 4 11 6 7 6 6 4 4 10 17 18 17 6 3 10 4 6
18 15 18 22 24 23 0 3 5 3 4 2 2 5 5 7 6 6 4 9 8 12 12 12 6 5 5 11 6 5 5 6 10 6 6 5 9 20 15 13 7 7 10 5
17 15 15 19 24 25 2 5 3 2 6 2 7 4 4 6 7 5 6 5 10 20 7 11 7 6 5 11 10 6 6 8 11 13 9 8 13 19 17 17 21 8 2 15
16 16 13 16 20 21 4 4 4 2 6 8 8 0 2 5 10 5 7 7 22 20 11 12 16 8 6 7 3 7 7 5 6 11 10 2 9 17 20 21 19 24 22 26
15 16 9 12 15 11 3 2 1 2 4 4 5 2 3 9 13 9 16 19 18 17 16 21 21 13 7 6 4 2 2 4 4 2 1 8 7 18 22 14 20 19 21 19
11 13 11 6 8 6 1 1 2 1 5 4 6 11 15 16 11 15 17 16 8 13 23 18 2 1 6 8 8 7 2 3 3 2 4 4 3 7 16 23 22 23 26 16
11 12 13 2 4 3 1 1 1 2 6 6 14 8 12 15 13 5 11 8 11 17 12 6 4 3 5 6 4 8 8 3 3 2 4 5 7 4 1 11 8 16 19 19
12 13 12 3 3 2 1 1 3 2 4 4 4 11 9 7 8 8 6 9 11 8 5 4 6 5 5 4 1 5 5 3 2 4 5 9 10 18 12 5 5 10 17 19
14 14 13 6 4 3 1 1 3 1 4 6 3 7 7 4 4 6 8 10 8 6 8 6 5 3 5 4 7 6 5 4 4 3 3 3 14 20 7 2 4 6 12 18
13 14 13 9 6 4 1 2 5 2 4 12 7 6 9 7 5 4 7 8 1 4 6 5 4 3 4 5 5 6 4 5 4 4 3 5 20 9 6 6 6 5 10 9
11 12 13 14 7 5 3 2 3 3 4 9 9 19 21 21 18 6 3 3 4 3 3 2 3 2 3 4 4 6 2 4 4 5 3 8 10 8 14 8 5 7 10 11
10 11 13 15 7 7 7 3 3 2 4 8 5 5 1 7 17 15 5 3 3 1 1 2 2 3 2 3 2 5 4 9 3 6 5 14 9 13 16 9 2 8 13 13
10 11 12 15 7 8 8 3 3 2 2 5 6 4 10 7 8 14 19 1 3 1 1 2 1 2 1 2 3 3 3 9 8 5 7 13 4 16 18 8 9 13 11 16
10 11 12 15 6 5 6 5 5 5 3 4 9 16 2 6 6 10 14 11 6 4 2 2 1 0 1 2 1 1 5 4 4 4 10 6 9 15 16 7 8 9 16 13
9 12 12 3 4 2 2 3 3 5 5 3 6 5 5 5 4 5 9 7 5 3 3 1 1 2 2 2 1 1 7 6 5 6 14 12 12 13 11 5 4 10 9 10
10 10 5 4 5 3 4 3 2 7 5 3 5 6 4 4 2 2 3 5 3 3 1 2 0 1 3 1 1 4 8 8 6 9 13 3 6 6 9 7 9 13 14 10
10 4 3 4 3 5 6 4 15 6 3 3 3 5 5 2 2 2 1 3 3 2 2 1 1 1 1 2 3 6 7 7 5 7 6 4 6 10 5 7 9 11 13 12
4 2 3 1 3 3 2 3 9 4 2 3 3 3 4 4 1 1 2 1 3 1 2 2 2 1 1 2 3 5 7 5 6 4 7 8 12 11 12 6 7 12 11 12
2 1 3 2 4 5 13 2 3 3 3 4 4 2 5 3 2 2 2 0 1 2 2 3 2 1 3 1 3 4 5 7 7 2 5 7 9 11 12 12 9 7 10 10
1 3 3 2 2 3 3 3 4 4 4 5 5 6 5 2 4 3 1 1 1 2 3 3 1 2 4 6 4 5 6 7 9 10 10 9 8 8 10 11 12 10 9 10
2 1 1 2 3 4 4 3 3 6 5 4 4 4 5 2 3 3 2 2 2 2 3 2 2 4 10 9 8 6 6 8 8 8 11 12 12 11 10 10 11 10 9 10
1 1 1 2 3 5 7 8 5 4 5 5 4 3 2 3 3 3 2 3 1 2 2 2 1 7 9 10 9 8 8 9 9 9 9 11 12 12 12 12 10 11 10 9
3 4 5 7 6 6 6 5 3 2 2 3 2 1 2 1 3 1 3 1 2 2 3 2 5 10 11 10 9 10 9 9 9 10 9 10 11 9 10 10 9 10 9 10
4 4 6 8 4 3 3 4 4 3 1 2 3 1 2 2 3 2 0 3 4 4 2 1 6 13 12 12 12 12 11 9 8 7 8 9 9 9 8 7 7 8 7 8
4 6 4 4 3 4 3 5 6 2 2 2 1 1 3 4 2 4 5 3 4 1 1 3 11 14 14 13 13 11 9 8 8 7 7 8 8 9 9 8 7 7 6 7
5 5 5 5 3 4 2 2 1 1 2 3 2 4 4 1 3 3 3 3 1 1 1 4 11 16 14 13 12 10 9 8 7 8 8 8 8 9 7 8 7 8 7 7
Wind_Direction
350 347 343 343 351 347 20 341 1 353 330 39 54 335 306 288 289 300 275 257 259 255 256 264 268 241 265 196 158 180 212 265 255 235 224 233 208 211 205 212 209 242 295 216
344 343 342 342 349 2 323 354 295 347 347 49 343 320 293 262 299 321 304 289 207 216 262 275 261 258 290 342 186 170 178 216 259 216 203 220 207 205 205 187 335 241 286 159
342 344 345 343 344 352 335 344 338 357 49 61 21 332 276 309 308 284 285 279 286 302 301 233 254 259 291 332 223 159 282 247 249 269 274 137 184 203 212 211 229 296 232 282
340 345 350 346 344 345 287 11 49 14 320 346 329 293 281 305 332 298 306 273 284 324 291 281 228 247 251 269 264 172 217 248 244 268 265 223 200 198 182 203 217 243 257 325
342 343 350 351 349 343 67 0 350 356 291 294 308 277 267 313 329 282 284 269 311 316 282 279 292 266 193 248 261 194 187 267 269 291 152 199 175 191 186 214 218 237 266 286
341 341 347 358 360 355 53 58 226 290 282 306 305 277 304 301 321 274 247 286 306 304 324 315 294 287 227 213 225 185 195 273 297 256 24 161 176 194 191 199 216 228 243 252
337 331 335 0 12 47 28 77 278 299 289 284 290 298 300 294 299 271 288 307 289 307 318 304 233 329 154 176 232 237 281 261 244 284 301 334 358 198 231 230 237 232 240 180
329 325 324 322 338 50 34 150 223 281 288 285 297 302 304 309 310 269 261 290 298 319 311 339 351 47 354 222 218 218 226 252 249 263 199 203 167 64 31 186 175 183 161 154
318 317 321 266 288 311 136 220 210 265 299 245 301 308 298 308 326 315 268 310 308 321 351 354 3 15 321 344 27 202 225 267 338 329 343 23 25 346 342 250 88 135 139 142
318 315 315 277 270 271 250 247 182 224 258 266 230 289 306 282 289 274 293 336 318 345 6 12 1 350 336 346 355 352 345 357 359 324 324 319 5 335 306 238 104 325 158 152
313 309 306 295 267 256 220 277 190 218 254 282 250 221 252 268 249 271 332 322 46 325 20 4 352 321 8 309 341 336 7 333 343 326 351 3 360 353 25 353 310 168 151 136
306 305 301 304 259 226 209 269 178 189 237 273 297 270 265 250 249 284 248 299 285 347 328 338 324 319 336 317 322 347 38 18 298 332 356 327 347 342 315 302 256 142 126 132
299 301 295 298 263 218 206 240 185 190 283 276 276 245 150 212 229 218 238 192 276 321 34 300 309 320 311 344 337 281 359 17 322 316 7 339 339 354 351 344 321 122 125 134
294 295 287 291 251 232 217 223 162 138 286 285 281 312 295 289 204 201 214 39 95 21 269 267 271 296 91 302 326 332 335 317 326 303 350 339 358 349 339 6 90 107 117 132
295 290 281 292 246 235 258 251 202 195 240 294 293 310 270 286 225 212 203 219 252 274 262 248 265 274 312 283 221 58 335 347 345 301 327 318 295 324 327 5 105 113 124 121
287 291 283 222 158 214 284 267 162 195 184 275 303 327 276 303 13 176 187 197 205 237 244 247 206 75 298 294 272 351 303 303 318 298 309 288 277 295 346 53 109 107 97 115
282 282 249 191 181 174 230 323 53 167 174 250 288 294 270 298 268 150 130 161 188 243 169 210 262 97 336 295 276 333 317 327 346 332 327 297 2 320 321 97 105 108 96 100
307 272 223 219 220 254 271 240 206 164 230 243 271 277 285 6 285 206 149 170 189 181 125 156 213 128 265 271 320 333 344 338 25 355 10 347 341 5 56 100 112 115 117 121
268 229 262 159 188 213 271 209 163 181 298 276 228 280 297 341 299 269 174 226 217 126 214 135 228 157 247 279 316 349 352 337 320 27 23 33 43 28 26 64 97 112 115 127
137 225 222 212 202 165 140 208 135 173 235 232 248 226 264 306 320 288 261 203 219 240 101 149 208 175 111 151 67 39 17 9 2 6 14 31 45 47 39 38 42 73 109 111
183 217 240 24 309 178 208 229 205 168 230 217 226 213 251 190 258 304 259 314 198 264 103 271 182 204 154 145 102 80 66 69 66 71 62 55 67 68 66 53 50 51 72 92
185 163 320 272 202 213 232 211 204 206 240 193 202 210 205 242 229 266 189 281 220 277 141 257 254 122 150 146 138 115 96 86 77 75 74 66 58 64 71 68 63 59 63 78
220 172 204 213 166 219 221 197 206 218 196 199 195 202 217 183 224 251 263 251 251 140 230 266 56 140 153 144 144 130 106 104 93 87 84 80 70 56 60 68 67 70 66 72
209 177 230 206 185 235 207 212 209 226 221 178 195 235 237 165 218 236 254 66 203 239 234 245 148 166 152 145 145 142 136 130 118 108 99 92 85 72 59 53 62 69 59 61
221 200 234 224 233 245 267 255 269 234 256 187 158 168 260 208 248 208 146 212 241 238 235 137 147 160 152 146 147 140 143 144 137 133 123 115 106 96 81 63 65 69 72 73
221 229 240 225 264 245 211 237 252 213 166 157 232 89 228 231 252 204 217 230 230 192 221 105 150 159 159 159 159 158 157 153 141 129 123 120 113 107 105 94 83 83 87 92
217 231 229 255 286 268 254 217 238 133 195 196 124 226 214 288 243 234 200 221 254 337 168 158 166 164 164 167 167 170 172 169 157 138 131 117 117 116 106 92 88 88 90 92